Location: Axtheid
(49.6213°N, 11.8205°E)
Time: 20:08:05
(UTC+00:00)

Cosmos 2278 Rocket - Pass Details

Date: 24 January 2021
Orbit: 840 x 847 km, 71.0° (Epoch: 01 March)

Event Time Altitude Azimuth Distance (km) Brightness Sun altitude
Rises 19:03:34 0° 213° (SSW) 3,391 5.7 -30.2°
Reaches altitude 10° 19:06:00 10° 216° (SW) 2,461 4.9 -30.6°
Enters shadow 19:10:34 57° 240° (WSW) 993 2.6 -31.4°
